QPF
0.00 0.00 0.00 0.00 0.00 0.00 0.00 0.00 0.00 0.00 0.00 0.00 0.00 0.00 0.00 0.00 0.03 0.11 0.00 0.00 0.00 0.00 0.00 0.00 0.00 0.00 0.00 0.00 0.00 0.00 0.00 0.00 0.00 0.00 0.00 0.00 0.00 0.00 0.00 0.00 0.00 0.00 0.00 0.00 0.00 0.00 0.00 0.00 0.00
0.00 0.00 0.00 0.00 0.00 0.00 0.00 0.00 0.00 0.00 0.00 0.00 0.00 0.00 0.00 0.00 0.00 0.00 0.00 0.00 0.00 0.00 0.00 0.00 0.00 0.00 0.00 0.00 0.00 0.00 0.00 0.00 0.00 0.00 0.00 0.00 0.00 0.00 0.00 0.00 0.00 0.00 0.00 0.00 0.00 0.00 0.00 0.00 0.00
0.00 0.00 0.00 0.00 0.00 0.00 0.00 0.00 0.00 0.00 0.00 0.00 0.00 0.00 0.00 0.00 0.00 0.00 0.00 0.00 0.00 0.00 0.00 0.00 0.00 0.00 0.00 0.00 0.00 0.00 0.00 0.00 0.00 0.00 0.00 0.00 0.00 0.00 0.00 0.00 0.00 0.00 0.00 0.00 0.00 0.00 0.00 0.00 0.00
0.00 0.00 0.00 0.00 0.00 0.00 0.00 0.00 0.00 0.00 0.00 0.00 0.00 0.00 0.00 0.00 0.00 0.00 0.00 0.00 0.00 0.00 0.00 0.00 0.00 0.00 0.00 0.00 0.00 0.00 0.00 0.00 0.00 0.00 0.00 0.00 0.00 0.00 0.00 0.00 0.00 0.00 0.00 0.00 0.00 0.00 0.00 0.00 0.00
0.00 0.00 0.00 0.00 0.00 0.00 0.00 0.00 0.00 0.00 0.00 0.00 0.00 0.00 0.00 0.00 0.00 0.00 0.00 0.00 0.00 0.00 0.00 0.00 0.00 0.00 0.00 0.00 0.00 0.00 0.00 0.00 0.00 0.00 0.00 0.00 0.00 0.00 0.00 0.00 0.00 0.00 0.00 0.00 0.00 0.00 0.00 0.00 0.00
0.00 0.00 0.00 0.00 0.00 0.00 0.00 0.00 0.00 0.00 0.00 0.00 0.00 0.00 0.00 0.00 0.00 0.00 0.00 0.00 0.00 0.00 0.00 0.00 0.00 0.00 0.00 0.00 0.00 0.00 0.00 0.00 0.00 0.00 0.00 0.00 0.00 0.00 0.00 0.00 0.00 0.00 0.00 0.00 0.00 0.00 0.00 0.00 0.00
0.00 0.00 0.00 0.00 0.00 0.00 0.00 0.00 0.00 0.00 0.00 0.00 0.00 0.00 0.00 0.00 0.00 0.00 0.00 0.00 0.00 0.00 0.00 0.00 0.00 0.00 0.00 0.00 0.00 0.00 0.00 0.00 0.00 0.00 0.00 0.00 0.00 0.00 0.00 0.00 0.00 0.00 0.00 0.00 0.00 0.00 0.00 0.00 0.00
0.00 0.00 0.00 0.00 0.00 0.00 0.00 0.00 0.00 0.00 0.00 0.00 0.00 0.00 0.00 0.00 0.00 0.00 0.00 0.00 0.00 0.00 0.00 0.00 0.00 0.00 0.00 0.00 0.00 0.00 0.00 0.00 0.00 0.00 0.00 0.00 0.00 0.00 0.00 0.00 0.00 0.00 0.00 0.00 0.00 0.00 0.00 0.00 0.00
0.00 0.00 0.00 0.00 0.00 0.00 0.00 0.00 0.00 0.00 0.00 0.00 0.00 0.00 0.00 0.00 0.00 0.00 0.00 0.00 0.00 0.00 0.00 0.00 0.00 0.00 0.00 0.00 0.00 0.00 0.00 0.00 0.00 0.00 0.00 0.00 0.00 0.00 0.00 0.00 0.00 0.00 0.00 0.00 0.00 0.00 0.00 0.00 0.00
0.00 0.00 0.00 0.00 0.00 0.00 0.00 0.00 0.00 0.00 0.00 0.00 0.00 0.00 0.00 0.00 0.00 0.00 0.00 0.00 0.00 0.00 0.00 0.00 0.00 0.00 0.00 0.00 0.00 0.00 0.00 0.00 0.00 0.00 0.00 0.00 0.00 0.00 0.00 0.00 0.00 0.00 0.00 0.00 0.00 0.00 0.00 0.00 0.00
0.00 0.00 0.00 0.00 0.00 0.00 0.00 0.00 0.00 0.00 0.00 0.00 0.00 0.00 0.00 0.00 0.00 0.00 0.00 0.00 0.00 0.00 0.00 0.00 0.00 0.00 0.00 0.00 0.00 0.00 0.00 0.00 0.00 0.00 0.00 0.00 0.00 0.00 0.00 0.00 0.00 0.00 0.00 0.00 0.00 0.00 0.00 0.00 0.00
0.00 0.00 0.00 0.00 0.00 0.00 0.00 0.00 0.00 0.00 0.00 0.00 0.00 0.00 0.00 0.00 0.00 0.00 0.00 0.00 0.00 0.00 0.00 0.00 0.00 0.00 0.00 0.00 0.00 0.00 0.00 0.00 0.00 0.00 0.00 0.00 0.00 0.00 0.00 0.00 0.00 0.00 0.00 0.00 0.00 0.00 0.00 0.00 0.00
0.00 0.00 0.00 0.00 0.00 0.00 0.00 0.00 0.00 0.00 0.00 0.00 0.00 0.00 0.00 0.00 0.00 0.00 0.00 0.00 0.00 0.00 0.02 0.00 0.00 0.00 0.00 0.00 0.00 0.00 0.00 0.00 0.00 0.00 0.00 0.00 0.00 0.00 0.00 0.00 0.00 0.00 0.00 0.00 0.00 0.00 0.00 0.00 0.00
0.00 0.00 0.00 0.00 0.00 0.00 0.00 0.00 0.00 0.00 0.00 0.00 0.00 0.00 0.00 0.00 0.00 0.00 0.00 0.00 0.00 0.00 0.01 0.01 0.00 0.00 0.00 0.00 0.00 0.00 0.00 0.00 0.00 0.00 0.00 0.00 0.00 0.00 0.00 0.00 0.00 0.00 0.00 0.00 0.00 0.00 0.00 0.00 0.00
0.00 0.00 0.00 0.00 0.00 0.00 0.00 0.00 0.00 0.00 0.00 0.00 0.00 0.00 0.00 0.00 0.00 0.00 0.00 0.00 0.00 0.00 0.00 0.00 0.00 0.00 0.00 0.00 0.00 0.00 0.00 0.00 0.00 0.00 0.00 0.00 0.00 0.00 0.00 0.00 0.00 0.00 0.00 0.00 0.00 0.00 0.00 0.00 0.00
0.00 0.00 0.00 0.00 0.00 0.00 0.00 0.00 0.00 0.00 0.00 0.00 0.00 0.00 0.00 0.00 0.00 0.00 0.00 0.00 0.00 0.00 0.00 0.00 0.00 0.00 0.00 0.00 0.00 0.00 0.00 0.00 0.00 0.00 0.00 0.00 0.00 0.00 0.00 0.00 0.00 0.00 0.00 0.00 0.00 0.00 0.00 0.00 0.00
0.00 0.00 0.00 0.00 0.00 0.00 0.00 0.00 0.00 0.00 0.00 0.00 0.00 0.00 0.00 0.00 0.00 0.00 0.00 0.00 0.00 0.00 0.00 0.00 0.00 0.00 0.00 0.00 0.00 0.00 0.00 0.00 0.00 0.00 0.00 0.00 0.00 0.00 0.00 0.00 0.00 0.00 0.00 0.00 0.00 0.00 0.00 0.00 0.00
0.00 0.00 0.00 0.00 0.00 0.00 0.00 0.00 0.00 0.00 0.00 0.00 0.00 0.00 0.00 0.00 0.00 0.00 0.00 0.00 0.00 0.00 0.00 0.00 0.00 0.00 0.00 0.00 0.00 0.00 0.00 0.00 0.00 0.00 0.00 0.00 0.00 0.00 0.00 0.00 0.00 0.00 0.00 0.00 0.00 0.00 0.00 0.00 0.00
0.00 0.00 0.00 0.00 0.00 0.00 0.00 0.00 0.00 0.00 0.00 0.00 0.00 0.00 0.00 0.00 0.00 0.00 0.00 0.00 0.00 0.00 0.00 0.00 0.00 0.00 0.00 0.00 0.00 0.00 0.00 0.00 0.00 0.00 0.00 0.00 0.00 0.00 0.00 0.00 0.00 0.00 0.00 0.00 0.00 0.00 0.00 0.00 0.00
0.00 0.00 0.00 0.00 0.00 0.00 0.00 0.00 0.00 0.00 0.00 0.00 0.00 0.00 0.00 0.00 0.00 0.00 0.00 0.00 0.00 0.00 0.00 0.00 0.00 0.00 0.00 0.00 0.00 0.00 0.00 0.00 0.00 0.00 0.00 0.00 0.00 0.00 0.00 0.00 0.00 0.00 0.00 0.00 0.00 0.00 0.00 0.00 0.00
0.00 0.00 0.00 0.00 0.00 0.00 0.00 0.00 0.00 0.00 0.00 0.00 0.00 0.00 0.00 0.00 0.00 0.00 0.00 0.00 0.00 0.00 0.00 0.00 0.00 0.00 0.00 0.00 0.01 0.04 0.01 0.00 0.00 0.00 0.00 0.00 0.00 0.00 0.00 0.00 0.00 0.00 0.00 0.00 0.00 0.00 0.00 0.00 0.00
0.00 0.00 0.00 0.00 0.00 0.00 0.00 0.00 0.00 0.00 0.00 0.01 0.01 0.00 0.00 0.00 0.00 0.00 0.00 0.00 0.00 0.00 0.00 0.00 0.00 0.00 0.00 0.00 0.00 0.05 0.04 0.00 0.00 0.00 0.00 0.00 0.00 0.00 0.00 0.00 0.00 0.00 0.00 0.00 0.00 0.00 0.00 0.00 0.00
0.00 0.00 0.00 0.00 0.00 0.00 0.00 0.01 0.02 0.00 0.00 0.00 0.00 0.00 0.00 0.00 0.00 0.00 0.00 0.00 0.00 0.00 0.00 0.00 0.00 0.00 0.00 0.00 0.00 0.05 0.11 0.03 0.01 0.00 0.00 0.00 0.00 0.00 0.00 0.00 0.00 0.00 0.00 0.00 0.00 0.00 0.00 0.00 0.00
0.00 0.00 0.00 0.00 0.00 0.02 0.01 0.03 0.07 0.01 0.02 0.00 0.00 0.01 0.01 0.00 0.00 0.00 0.00 0.00 0.00 0.00 0.00 0.00 0.00 0.00 0.00 0.04 0.04 0.04 0.10 0.04 0.02 0.00 0.00 0.00 0.00 0.00 0.00 0.00 0.00 0.00 0.00 0.00 0.00 0.00 0.00 0.00 0.00
0.00 0.00 0.00 0.00 0.02 0.03 0.00 0.00 0.01 0.02 0.02 0.02 0.02 0.04 0.08 0.04 0.01 0.00 0.00 0.00 0.00 0.00 0.00 0.00 0.00 0.00 0.00 0.05 0.13 0.11 0.17 0.17 0.12 0.04 0.03 0.01 0.00 0.00 0.00 0.00 0.00 0.00 0.00 0.00 0.00 0.00 0.00 0.00 0.00
0.00 0.00 0.00 0.00 0.00 0.02 0.00 0.01 0.01 0.02 0.01 0.01 0.01 0.03 0.08 0.09 0.08 0.05 0.01 0.00 0.00 0.00 0.00 0.00 0.00 0.00 0.00 0.02 0.06 0.05 0.05 0.08 0.18 0.19 0.12 0.08 0.06 0.02 0.00 0.00 0.00 0.00 0.00 0.00 0.00 0.00 0.00 0.00 0.00
0.00 0.00 0.00 0.00 0.00 0.04 0.02 0.01 0.04 0.00 0.00 0.01 0.03 0.07 0.08 0.08 0.11 0.10 0.05 0.01 0.00 0.00 0.00 0.00 0.00 0.00 0.00 0.00 0.02 0.07 0.07 0.03 0.03 0.06 0.03 0.04 0.06 0.07 0.04 0.01 0.00 0.00 0.00 0.00 0.00 0.00 0.00 0.00 0.00
0.00 0.00 0.00 0.01 0.01 0.02 0.05 0.03 0.03 0.00 0.00 0.00 0.01 0.04 0.08 0.10 0.15 0.11 0.05 0.03 0.01 0.00 0.00 0.00 0.00 0.00 0.00 0.00 0.00 0.01 0.04 0.06 0.06 0.04 0.08 0.06 0.03 0.03 0.05 0.07 0.04 0.01 0.00 0.00 0.00 0.00 0.00 0.00 0.00
0.00 0.00 0.00 0.00 0.00 0.00 0.05 0.07 0.00 0.01 0.00 0.00 0.00 0.00 0.00 0.00 0.05 0.09 0.08 0.04 0.02 0.00 0.00 0.00 0.00 0.00 0.00 0.00 0.00 0.00 0.00 0.00 0.03 0.10 0.09 0.04 0.03 0.01 0.00 0.00 0.04 0.04 0.03 0.03 0.04 0.02 0.01 0.00 0.00
0.00 0.00 0.00 0.00 0.00 0.00 0.01 0.04 0.00 0.00 0.00 0.00 0.00 0.00 0.00 0.00 0.00 0.00 0.01 0.02 0.01 0.02 0.01 0.00 0.00 0.00 0.00 0.00 0.00 0.00 0.00 0.00 0.00 0.00 0.01 0.03 0.03 0.01 0.00 0.00 0.01 0.03 0.06 0.07 0.06 0.08 0.09 0.05 0.03
MSLP
1010.82 1009.13 1007.68 1007.15 1006.56 1004.40 1002.31 1000.36 998.73 997.58 997.72 998.45 999.13 1000.15 1000.65 1001.35 1003.25 1005.46 1005.12 1004.81 1005.85 1007.36 1008.68 1009.51 1010.04 1010.85 1011.38 1011.96 1012.56 1012.91 1013.19 1013.67 1014.12 1014.57 1014.92 1015.25 1015.43 1015.66 1015.88 1016.09 1016.31 1016.61 1016.91 1017.20 1017.45 1017.63 1017.82 1018.05 1018.23
1010.79 1009.70 1007.77 1006.66 1005.41 1003.30 1001.15 999.83 998.41 997.83 998.24 999.05 999.40 1000.07 1000.50 1002.10 1002.90 1004.27 1004.52 1005.04 1006.09 1007.66 1008.76 1009.50 1010.27 1011.01 1011.57 1012.01 1012.64 1013.19 1013.46 1013.89 1014.36 1014.91 1015.30 1015.57 1015.78 1016.00 1016.22 1016.40 1016.65 1016.94 1017.24 1017.51 1017.76 1017.97 1018.20 1018.46 1018.60
1010.77 1009.50 1007.90 1006.06 1004.49 1002.98 1000.46 999.24 998.49 998.06 998.70 999.32 999.99 1000.75 1001.06 1003.14 1003.32 1003.94 1004.55 1005.22 1006.48 1008.01 1008.69 1009.79 1010.35 1011.12 1011.78 1012.18 1012.74 1013.31 1013.72 1014.22 1014.63 1015.09 1015.46 1015.94 1016.14 1016.33 1016.57 1016.76 1016.96 1017.23 1017.50 1017.75 1018.01 1018.28 1018.55 1018.80 1018.92
1009.27 1008.07 1007.42 1005.55 1003.95 1002.25 1000.92 1000.02 999.73 999.14 999.41 1000.08 1000.65 1001.17 1002.93 1003.96 1003.97 1004.28 1004.92 1005.56 1006.92 1008.20 1008.75 1010.36 1010.66 1011.14 1011.98 1012.47 1012.91 1013.53 1013.91 1014.36 1014.84 1015.42 1015.78 1015.99 1016.42 1016.67 1016.92 1017.13 1017.29 1017.51 1017.73 1018.00 1018.30 1018.61 1018.90 1019.11 1019.22
1008.42 1007.36 1006.06 1004.58 1003.68 1002.47 1001.49 1000.74 1000.84 1000.58 1000.47 1000.63 1001.28 1001.92 1003.39 1004.30 1004.58 1004.82 1005.57 1006.17 1007.31 1008.28 1009.40 1010.53 1011.10 1011.31 1012.06 1012.62 1013.07 1013.66 1014.12 1014.50 1015.02 1015.44 1016.03 1016.28 1016.57 1016.86 1017.20 1017.44 1017.63 1017.87 1018.08 1018.32 1018.60 1018.86 1019.15 1019.45 1019.55
1007.72 1006.82 1005.58 1003.98 1002.88 1002.06 1001.63 1001.52 1001.89 1001.70 1001.51 1001.43 1001.90 1002.42 1004.08 1005.08 1005.14 1005.54 1005.97 1006.65 1007.48 1008.48 1009.58 1010.75 1011.57 1011.76 1012.07 1012.71 1013.22 1013.74 1014.27 1014.66 1015.08 1015.58 1016.10 1016.47 1016.79 1017.09 1017.37 1017.72 1017.96 1018.16 1018.40 1018.67 1018.89 1019.11 1019.41 1019.67 1019.82
1007.46 1006.17 1005.19 1004.08 1002.80 1001.85 1001.87 1002.38 1002.92 1003.15 1002.70 1002.25 1002.56 1003.07 1005.12 1005.75 1005.81 1006.01 1006.20 1007.01 1007.73 1008.78 1009.72 1010.92 1011.71 1012.20 1012.50 1012.78 1013.35 1013.95 1014.42 1014.80 1015.25 1015.63 1016.15 1016.60 1016.99 1017.26 1017.59 1017.94 1018.19 1018.40 1018.66 1018.90 1019.12 1019.34 1019.60 1019.79 1019.94
1006.94 1006.32 1005.24 1004.20 1003.49 1002.81 1003.42 1003.77 1004.32 1004.29 1003.86 1003.28 1003.15 1003.77 1005.64 1006.60 1006.46 1006.64 1006.87 1007.37 1008.13 1009.16 1010.00 1011.15 1011.65 1012.32 1012.76 1013.22 1013.56 1014.05 1014.57 1014.95 1015.38 1015.81 1016.23 1016.67 1017.08 1017.46 1017.72 1018.11 1018.39 1018.63 1018.87 1019.03 1019.28 1019.56 1019.78 1019.97 1020.07
1006.80 1006.72 1005.38 1004.66 1004.25 1003.83 1004.24 1004.72 1005.06 1005.43 1005.21 1004.50 1004.05 1004.46 1005.75 1006.26 1006.81 1006.81 1007.54 1007.96 1008.64 1009.58 1010.37 1011.16 1011.71 1012.15 1012.59 1013.18 1013.80 1014.17 1014.66 1015.09 1015.52 1015.94 1016.34 1016.70 1016.98 1017.44 1017.79 1017.95 1018.37 1018.75 1019.03 1019.27 1019.46 1019.65 1019.87 1020.03 1020.12
1007.04 1006.28 1005.54 1005.38 1006.13 1006.36 1005.98 1006.23 1006.51 1006.73 1006.49 1005.84 1004.82 1004.80 1005.24 1005.87 1006.49 1007.05 1007.40 1008.12 1008.73 1009.62 1010.52 1011.14 1011.72 1012.04 1012.29 1012.56 1013.60 1014.18 1014.62 1015.07 1015.47 1015.88 1016.37 1016.46 1016.55 1017.02 1017.32 1017.67 1018.27 1018.77 1019.10 1019.37 1019.59 1019.76 1019.95 1020.04 1019.83
1006.55 1006.51 1005.66 1006.56 1007.70 1007.85 1007.67 1007.55 1007.52 1007.68 1007.45 1007.01 1006.68 1006.50 1006.14 1006.17 1006.41 1006.79 1007.36 1007.54 1008.11 1009.02 1010.06 1010.93 1011.52 1011.76 1011.98 1012.03 1013.12 1013.69 1014.31 1014.69 1015.10 1015.49 1015.99 1016.07 1016.16 1016.60 1016.93 1017.60 1018.11 1018.66 1019.15 1019.41 1019.66 1019.81 1019.79 1019.63 1019.37
1007.20 1007.13 1006.98 1007.47 1008.42 1008.59 1008.61 1008.65 1008.34 1008.42 1008.58 1008.28 1007.59 1007.37 1007.23 1007.04 1006.98 1006.62 1006.68 1007.17 1007.44 1008.16 1009.13 1010.33 1011.23 1011.60 1011.79 1011.77 1012.70 1013.12 1013.58 1014.09 1014.59 1014.96 1015.50 1015.74 1015.80 1016.20 1016.57 1017.03 1017.48 1018.00 1018.52 1018.82 1019.13 1019.29 1019.35 1019.20 1018.96
1008.22 1007.97 1008.06 1008.54 1009.11 1009.42 1009.46 1009.27 1009.11 1008.79 1008.77 1008.58 1008.17 1007.52 1007.44 1007.44 1007.33 1007.04 1006.60 1006.69 1007.06 1007.71 1008.43 1009.31 1010.55 1011.28 1011.68 1011.89 1012.23 1012.63 1012.96 1013.54 1014.00 1014.40 1014.92 1015.31 1015.41 1015.85 1016.07 1016.41 1016.80 1017.35 1017.71 1018.08 1018.40 1018.57 1018.73 1018.80 1018.67
1009.59 1009.46 1009.39 1009.51 1009.67 1009.93 1010.36 1010.11 1009.77 1009.19 1008.64 1008.36 1008.17 1007.80 1007.65 1007.66 1007.42 1007.08 1006.64 1006.47 1006.56 1007.08 1007.89 1008.73 1009.64 1010.75 1011.33 1011.79 1012.02 1012.44 1012.53 1013.00 1013.57 1013.94 1014.33 1014.89 1015.00 1015.28 1015.68 1016.06 1016.29 1016.72 1016.88 1017.37 1017.60 1017.91 1018.06 1018.28 1018.33
1010.55 1010.19 1009.32 1009.37 1010.01 1010.27 1010.95 1010.26 1009.40 1008.95 1008.69 1008.35 1008.61 1008.33 1008.11 1007.81 1007.46 1007.24 1006.98 1006.68 1006.31 1006.60 1006.97 1007.89 1008.83 1009.98 1010.99 1011.40 1011.73 1011.99 1012.04 1012.34 1012.87 1013.23 1013.85 1014.37 1014.51 1014.74 1015.25 1015.72 1015.98 1016.01 1016.25 1016.68 1017.02 1017.25 1017.47 1017.83 1017.76
1009.89 1009.79 1009.13 1009.75 1009.81 1010.18 1010.94 1010.66 1009.94 1010.10 1010.06 1009.96 1009.79 1009.41 1008.90 1008.74 1008.41 1007.70 1007.19 1006.64 1006.31 1006.21 1006.64 1007.40 1008.10 1009.05 1010.13 1011.08 1011.36 1011.49 1011.53 1011.83 1012.21 1012.57 1013.16 1013.79 1014.19 1014.41 1014.94 1015.43 1015.52 1015.46 1015.68 1016.05 1016.51 1016.91 1017.22 1017.44 1017.54
1010.08 1010.13 1010.42 1010.26 1010.24 1010.84 1011.27 1011.05 1011.03 1011.09 1010.94 1010.82 1010.67 1010.32 1009.84 1009.47 1009.16 1008.47 1007.63 1006.89 1006.24 1005.89 1005.96 1006.71 1007.72 1008.35 1009.34 1010.20 1011.11 1011.24 1011.38 1011.74 1011.79 1012.11 1012.43 1013.06 1013.68 1014.09 1014.54 1014.81 1015.03 1015.10 1015.33 1015.70 1016.19 1016.58 1016.86 1017.15 1017.24
1011.23 1011.40 1011.35 1011.01 1011.00 1011.52 1011.95 1012.03 1012.23 1012.12 1011.90 1011.95 1011.69 1011.26 1010.50 1009.82 1009.59 1009.04 1008.12 1007.16 1006.63 1006.26 1005.47 1005.73 1006.76 1007.81 1008.75 1009.65 1010.44 1010.90 1011.14 1011.38 1011.49 1011.74 1012.02 1012.53 1013.10 1013.67 1014.21 1014.41 1014.62 1014.66 1015.20 1015.51 1015.84 1016.22 1016.48 1016.71 1016.93
1012.44 1012.17 1011.78 1011.54 1011.98 1012.50 1012.58 1012.78 1013.38 1014.21 1014.54 1014.38 1013.97 1012.90 1011.82 1010.09 1009.48 1009.19 1008.39 1007.72 1007.33 1006.71 1006.05 1005.77 1006.05 1007.01 1008.10 1008.90 1009.72 1010.36 1010.59 1010.99 1011.23 1011.38 1011.52 1011.96 1012.49 1012.97 1013.54 1013.97 1014.30 1014.31 1014.74 1015.07 1015.51 1015.95 1016.35 1016.55 1016.59
1012.57 1012.51 1012.51 1012.57 1012.84 1012.94 1012.80 1013.19 1014.58 1015.91 1016.68 1016.84 1016.31 1015.42 1014.55 1013.01 1010.73 1009.46 1009.08 1008.70 1008.16 1007.67 1006.94 1006.01 1006.39 1006.44 1007.14 1008.16 1008.78 1009.56 1009.95 1010.14 1010.54 1011.01 1010.97 1011.18 1011.84 1012.36 1012.90 1013.74 1014.08 1014.24 1014.38 1014.66 1015.08 1015.54 1016.04 1016.29 1016.21
1013.05 1013.49 1013.71 1013.73 1013.27 1012.56 1012.99 1014.13 1016.19 1017.70 1018.41 1018.70 1018.03 1017.74 1017.07 1016.08 1014.34 1012.80 1011.87 1011.26 1009.85 1009.69 1009.07 1007.81 1006.40 1006.18 1006.62 1007.32 1008.10 1008.64 1009.28 1009.50 1009.76 1010.17 1010.69 1010.69 1010.87 1011.59 1012.21 1012.87 1013.53 1013.67 1013.84 1014.18 1014.49 1014.77 1015.32 1015.75 1015.90
1013.66 1014.17 1014.20 1013.86 1013.52 1012.89 1013.51 1015.07 1017.64 1019.22 1020.10 1020.10 1019.95 1019.70 1019.28 1017.95 1016.69 1015.34 1014.17 1013.36 1012.63 1011.67 1010.63 1009.59 1008.46 1006.90 1005.93 1006.76 1007.33 1008.14 1008.53 1008.67 1008.78 1009.15 1009.58 1010.11 1010.12 1010.58 1011.24 1011.91 1012.58 1013.08 1013.21 1013.43 1013.71 1014.07 1014.32 1014.88 1015.22
1014.32 1014.41 1014.03 1013.66 1013.41 1013.34 1014.41 1015.84 1019.49 1020.71 1021.51 1021.77 1021.77 1021.77 1021.50 1020.45 1018.65 1017.17 1016.65 1015.72 1015.12 1013.67 1012.53 1011.51 1010.31 1008.72 1007.89 1005.59 1006.63 1007.44 1008.20 1008.00 1007.96 1008.27 1008.55 1009.08 1009.50 1009.95 1010.25 1010.90 1011.69 1012.20 1012.59 1012.73 1012.94 1013.19 1013.61 1013.93 1014.43
1014.43 1013.66 1012.90 1013.00 1013.31 1014.65 1016.21 1017.33 1020.95 1022.32 1022.94 1022.79 1022.75 1022.80 1022.26 1021.55 1020.46 1019.33 1018.70 1018.04 1015.98 1015.61 1013.71 1012.95 1012.00 1010.85 1010.07 1008.98 1007.34 1007.26 1008.07 1008.54 1008.19 1007.98 1008.42 1008.70 1009.04 1009.23 1009.60 1010.08 1010.57 1011.13 1011.63 1012.08 1012.30 1012.50 1012.76 1013.06 1013.28
1014.53 1014.05 1013.01 1013.30 1014.12 1015.92 1016.81 1018.87 1022.16 1023.05 1023.41 1023.40 1023.13 1022.93 1023.02 1022.62 1022.12 1021.34 1020.20 1018.56 1017.63 1016.81 1015.87 1014.75 1013.70 1012.87 1012.27 1011.51 1011.08 1009.98 1009.55 1009.19 1008.99 1009.05 1009.16 1009.22 1009.02 1008.95 1009.16 1009.48 1009.90 1010.22 1010.67 1011.03 1011.73 1012.19 1012.20 1012.28 1012.58
1015.26 1015.57 1015.68 1015.50 1015.37 1016.22 1017.52 1019.82 1022.01 1022.98 1023.39 1023.42 1023.39 1023.30 1022.93 1022.91 1022.82 1022.61 1021.88 1020.70 1019.76 1018.87 1017.83 1016.72 1015.59 1014.55 1013.76 1013.22 1012.77 1012.66 1011.71 1011.39 1011.51 1011.19 1010.38 1009.95 1009.68 1009.43 1009.35 1009.33 1009.51 1009.51 1009.55 1010.49 1010.06 1011.26 1011.33 1011.27 1011.63
1015.82 1016.24 1016.99 1017.22 1016.77 1017.12 1018.65 1021.07 1021.74 1022.21 1022.47 1022.91 1022.97 1023.06 1022.97 1022.98 1023.18 1022.93 1022.29 1021.72 1020.48 1019.47 1018.54 1017.77 1016.95 1016.10 1015.23 1014.72 1014.26 1013.87 1013.60 1012.91 1012.62 1012.48 1012.10 1012.08 1011.52 1010.88 1010.36 1009.89 1009.44 1009.15 1008.96 1009.66 1009.63 1010.46 1010.75 1010.72 1010.65
1016.59 1017.29 1017.62 1018.04 1018.19 1018.09 1018.98 1020.29 1020.87 1021.33 1021.66 1021.75 1021.87 1021.88 1021.61 1021.93 1022.26 1022.60 1022.48 1021.96 1021.28 1020.16 1019.11 1018.39 1017.83 1017.22 1016.56 1016.02 1015.58 1015.08 1014.71 1014.38 1014.13 1013.71 1013.36 1012.65 1011.93 1011.63 1011.52 1010.88 1010.52 1009.94 1009.03 1009.16 1009.49 1009.91 1009.93 1010.14 1010.05
1016.72 1017.29 1018.58 1019.51 1019.46 1019.34 1019.33 1020.25 1020.05 1020.26 1020.50 1020.26 1020.30 1020.50 1020.29 1020.45 1021.29 1021.40 1021.29 1021.09 1021.36 1020.77 1020.00 1019.17 1018.39 1017.78 1017.37 1016.89 1016.52 1016.09 1015.42 1015.24 1014.92 1014.88 1013.63 1012.59 1012.55 1011.97 1011.47 1011.93 1011.91 1011.11 1010.07 1010.23 1009.62 1009.35 1009.51 1009.64 1009.66
1017.48 1017.92 1018.49 1019.59 1019.95 1019.90 1019.89 1019.92 1019.45 1019.14 1019.09 1018.99 1019.01 1018.99 1019.09 1018.86 1019.23 1019.61 1020.14 1020.13 1019.96 1020.05 1020.01 1019.59 1019.05 1018.51 1018.07 1017.72 1017.24 1016.85 1016.52 1015.94 1015.18 1014.38 1014.18 1013.70 1013.80 1013.77 1011.96 1011.91 1012.80 1012.51 1012.03 1011.80 1011.12 1010.55 1010.19 1009.84 1009.56
Thickness
5761 5775 5790 5783 5752 5768 5769 5797 5836 5841 5835 5843 5848 5833 5827 5820 5795 5751 5826 5835 5828 5815 5804 5797 5794 5787 5782 5778 5774 5770 5767 5763 5760 5756 5753 5750 5749 5747 5746 5745 5743 5740 5738 5736 5735 5735 5735 5734 5734
5759 5768 5778 5769 5745 5748 5778 5820 5824 5846 5838 5841 5844 5839 5831 5798 5828 5821 5824 5834 5828 5814 5805 5797 5792 5786 5782 5779 5773 5769 5765 5762 5759 5754 5751 5748 5747 5746 5744 5744 5742 5740 5738 5736 5735 5735 5735 5734 5734
5756 5767 5755 5754 5754 5748 5782 5830 5839 5843 5840 5832 5828 5839 5829 5805 5825 5826 5834 5833 5825 5812 5806 5795 5791 5786 5780 5778 5774 5769 5765 5759 5756 5753 5750 5746 5745 5744 5743 5742 5741 5739 5738 5736 5735 5735 5734 5733 5733
5758 5763 5760 5743 5748 5780 5794 5815 5820 5821 5824 5830 5827 5814 5818 5825 5823 5830 5834 5832 5820 5811 5806 5793 5789 5785 5779 5775 5773 5768 5765 5760 5755 5751 5748 5746 5743 5742 5741 5740 5740 5738 5737 5736 5734 5734 5733 5732 5732
5756 5754 5740 5747 5754 5777 5794 5803 5803 5800 5802 5811 5820 5803 5796 5818 5830 5830 5825 5825 5815 5810 5801 5792 5786 5784 5779 5775 5771 5768 5764 5761 5755 5751 5746 5744 5742 5741 5739 5738 5738 5737 5736 5735 5734 5734 5732 5731 5730
5732 5746 5729 5738 5761 5784 5792 5798 5787 5797 5800 5810 5808 5805 5785 5816 5818 5821 5823 5818 5816 5808 5799 5790 5783 5781 5779 5774 5770 5767 5764 5760 5756 5751 5746 5742 5740 5739 5738 5736 5735 5735 5734 5733 5733 5732 5731 5729 5729
5722 5731 5728 5745 5760 5776 5780 5791 5777 5780 5786 5794 5805 5784 5771 5796 5812 5816 5818 5815 5811 5805 5797 5787 5781 5778 5775 5773 5770 5766 5763 5759 5755 5751 5747 5743 5740 5738 5735 5733 5733 5733 5732 5731 5731 5730 5729 5728 5728
5730 5728 5725 5742 5747 5755 5764 5766 5774 5771 5772 5800 5801 5776 5757 5783 5801 5806 5808 5807 5803 5799 5793 5784 5780 5774 5772 5769 5767 5764 5761 5758 5754 5750 5747 5743 5739 5737 5735 5732 5731 5730 5730 5730 5729 5728 5727 5727 5727
5734 5705 5712 5731 5742 5755 5760 5748 5767 5771 5767 5781 5789 5784 5777 5791 5797 5797 5792 5794 5793 5791 5786 5782 5777 5774 5771 5768 5764 5762 5759 5756 5752 5749 5746 5743 5739 5736 5734 5733 5730 5728 5727 5727 5727 5726 5725 5725 5726
5707 5704 5716 5730 5725 5720 5733 5734 5745 5744 5746 5754 5771 5782 5781 5786 5787 5782 5783 5781 5783 5782 5780 5779 5775 5773 5772 5770 5764 5760 5757 5754 5751 5748 5745 5744 5742 5739 5737 5735 5731 5727 5726 5725 5724 5724 5724 5724 5726
5711 5698 5720 5713 5709 5716 5717 5725 5737 5728 5727 5739 5741 5753 5764 5775 5778 5778 5777 5783 5783 5783 5780 5777 5774 5772 5772 5773 5765 5761 5758 5755 5752 5750 5746 5745 5745 5741 5739 5735 5732 5728 5724 5723 5722 5722 5723 5725 5727
5689 5705 5708 5708 5707 5707 5704 5713 5716 5720 5717 5732 5743 5748 5751 5757 5766 5775 5776 5779 5783 5783 5781 5777 5773 5771 5770 5771 5765 5763 5761 5757 5754 5752 5748 5747 5747 5744 5741 5738 5735 5732 5728 5726 5724 5724 5725 5726 5729
5681 5689 5697 5700 5694 5695 5698 5697 5702 5709 5716 5725 5734 5743 5744 5748 5755 5764 5775 5779 5781 5778 5780 5779 5774 5770 5768 5768 5765 5763 5762 5758 5756 5754 5750 5748 5748 5746 5744 5741 5739 5735 5733 5731 5729 5728 5727 5728 5729
5671 5672 5676 5681 5682 5682 5678 5685 5692 5696 5710 5716 5722 5729 5734 5738 5746 5756 5764 5768 5774 5775 5774 5776 5773 5768 5765 5765 5763 5762 5761 5758 5756 5754 5752 5749 5749 5748 5745 5742 5741 5738 5737 5734 5733 5731 5731 5730 5730
5658 5654 5672 5674 5671 5666 5670 5670 5680 5692 5703 5705 5706 5713 5720 5726 5736 5742 5751 5758 5766 5771 5773 5772 5771 5767 5761 5761 5761 5760 5760 5759 5757 5756 5752 5749 5749 5748 5745 5742 5742 5741 5739 5737 5735 5733 5732 5730 5731
5660 5661 5658 5662 5668 5667 5659 5643 5667 5676 5678 5678 5684 5692 5701 5708 5716 5730 5741 5750 5761 5767 5766 5767 5769 5766 5761 5756 5758 5758 5759 5758 5756 5756 5753 5749 5748 5747 5744 5743 5742 5742 5742 5739 5736 5734 5731 5730 5730
5651 5637 5636 5644 5658 5651 5645 5636 5650 5659 5659 5662 5668 5675 5683 5692 5701 5713 5727 5740 5751 5759 5762 5760 5761 5761 5759 5756 5752 5753 5753 5752 5754 5753 5754 5751 5748 5747 5744 5742 5741 5742 5741 5740 5736 5733 5731 5728 5727
5618 5618 5624 5626 5638 5634 5625 5622 5625 5633 5640 5642 5650 5657 5668 5677 5686 5698 5712 5726 5736 5746 5754 5759 5757 5755 5754 5751 5748 5748 5748 5748 5749 5750 5751 5750 5747 5744 5742 5741 5741 5742 5740 5738 5735 5731 5730 5728 5725
5618 5618 5618 5626 5627 5614 5609 5607 5601 5603 5602 5606 5615 5632 5646 5663 5676 5687 5694 5709 5718 5729 5737 5745 5747 5748 5746 5745 5740 5740 5741 5743 5744 5747 5748 5748 5745 5742 5740 5739 5738 5740 5739 5736 5733 5730 5726 5723 5724
5617 5612 5608 5612 5611 5604 5600 5592 5585 5577 5571 5570 5579 5593 5602 5620 5647 5665 5671 5685 5697 5705 5716 5731 5737 5742 5743 5741 5742 5739 5740 5744 5744 5742 5745 5745 5745 5741 5739 5735 5734 5734 5735 5733 5730 5727 5722 5721 5722
5607 5594 5588 5584 5594 5601 5590 5574 5550 5546 5541 5538 5546 5555 5567 5577 5590 5609 5631 5647 5661 5661 5683 5706 5723 5732 5737 5739 5738 5738 5736 5738 5738 5739 5737 5742 5744 5742 5738 5735 5732 5732 5732 5729 5728 5727 5723 5716 5717
5590 5591 5584 5580 5575 5568 5579 5551 5529 5519 5510 5513 5512 5516 5526 5544 5560 5583 5602 5613 5626 5646 5662 5682 5696 5713 5729 5732 5732 5728 5726 5728 5737 5738 5741 5738 5740 5741 5737 5734 5731 5729 5729 5729 5729 5727 5725 5719 5715
5583 5585 5581 5579 5573 5571 5564 5551 5513 5508 5492 5494 5493 5490 5494 5505 5529 5550 5566 5585 5604 5622 5634 5650 5668 5686 5701 5729 5726 5722 5720 5728 5733 5735 5736 5737 5737 5737 5736 5735 5731 5728 5725 5728 5728 5727 5722 5722 5716
5588 5587 5588 5581 5575 5546 5544 5544 5502 5487 5482 5487 5487 5480 5481 5488 5499 5519 5531 5547 5578 5592 5612 5626 5640 5656 5669 5688 5710 5717 5713 5713 5719 5727 5725 5728 5730 5733 5734 5732 5731 5729 5726 5722 5725 5724 5721 5720 5718
5580 5573 5569 5563 5552 5535 5551 5528 5481 5480 5483 5480 5481 5479 5470 5475 5478 5486 5504 5526 5543 5561 5578 5594 5611 5623 5635 5651 5661 5681 5690 5696 5701 5705 5706 5709 5715 5721 5723 5724 5722 5724 5723 5721 5713 5712 5716 5716 5715
5566 5558 5543 5533 5546 5549 5547 5514 5493 5483 5481 5479 5474 5470 5472 5466 5465 5467 5475 5495 5510 5528 5546 5563 5581 5597 5609 5623 5633 5637 5656 5663 5667 5672 5684 5690 5695 5703 5708 5711 5715 5717 5716 5711 5716 5705 5707 5711 5709
5559 5549 5549 5533 5547 5542 5528 5491 5497 5493 5488 5478 5475 5467 5466 5465 5460 5463 5468 5475 5493 5508 5525 5542 5556 5570 5584 5598 5608 5614 5624 5634 5643 5648 5658 5661 5668 5679 5687 5696 5701 5705 5705 5702 5706 5699 5700 5703 5708
5555 5552 5534 5534 5521 5525 5524 5504 5498 5492 5483 5486 5483 5478 5483 5476 5467 5463 5465 5470 5477 5491 5508 5523 5536 5548 5560 5571 5582 5592 5599 5607 5616 5627 5635 5643 5653 5659 5663 5671 5678 5684 5696 5696 5694 5692 5696 5694 5698
5551 5543 5529 5518 5520 5515 5521 5498 5509 5501 5494 5494 5493 5490 5493 5490 5475 5473 5474 5475 5476 5482 5491 5503 5517 5530 5539 5549 5559 5568 5579 5585 5596 5605 5604 5617 5627 5639 5648 5648 5652 5659 5672 5672 5679 5684 5684 5684 5686
5546 5538 5534 5512 5511 5512 5505 5500 5511 5509 5505 5503 5500 5498 5496 5501 5495 5490 5482 5483 5484 5483 5488 5492 5500 5509 5520 5530 5539 5547 5555 5566 5578 5592 5591 5587 5598 5597 5623 5630 5627 5632 5640 5644 5653 5658 5662 5665 5674